H1 CPF 2 NER 2023 12 15 9 349 01 glonass106 H2 0705201 9106 32275 2023 12 15 0 0 0 2023 12 18 23 45 0 900 1 1 0 0 0 1 H9 10 0 60293 0.00000 0 10752585.636 5849075.768 22385673.725 10 0 60293 900.00000 0 11237772.255 8502692.766 21268170.337 10 0 60293 1800.00000 0 11888357.133 10952996.908 19737868.187 10 0 60293 2700.00000 0 12664047.850 13143788.981 17824421.539 10 0 60293 3600.00000 0 13515906.568 15028646.799 15564925.274 10 0 60293 4500.00000 0 14388487.562 16572625.716 13003200.993 10 0 60293 5400.00000 0 15222266.668 17753486.966 10188951.720 10 0 60293 6300.00000 0 15956260.601 18562403.039 7176800.959 10 0 60293 7200.00000 0 16530725.777 19004111.046 4025234.377 10 0 60293 8100.00000 0 16889822.597 19096508.074 795464.466 10 0 60293 9000.00000 0 16984132.270 18869706.007 -2449759.703 10 0 60293 9900.00000 0 16772919.206 18364586.044 -5647374.208 10 0 60293 10800.00000 0 16226042.553 17630914.363 -8735229.273 10 0 60293 11700.00000 0 15325435.112 16725098.905 -11653301.137 10 0 60293 12600.00000 0 14066086.115 15707682.504 -14344862.622 10 0 60293 13500.00000 0 12456485.269 14640678.666 -16757589.184 10 0 60293 14400.00000 0 10518508.148 13584862.855 -18844578.605 10 0 60293 15300.00000 0 8286746.684 12597133.938 -20565264.292 10 0 60293 16200.00000 0 5807311.690 11728057.216 -21886204.422 10 0 60293 17100.00000 0 3136156.596 11019692.668 -22781731.759 10 0 60293 18000.00000 0 336991.535 10503799.833 -23234451.719 10 0 60293 18900.00000 0 -2521125.998 10200494.694 -23235579.304 10 0 60293 19800.00000 0 -5366424.288 10117414.860 -22785108.599 10 0 60293 20700.00000 0 -8127165.355 10249427.858 -21891811.725 10 0 60293 21600.00000 0 -10734394.053 10578894.516 -20573067.343 10 0 60293 22500.00000 0 -13124574.568 11076476.043 -18854522.007 10 0 60293 23400.00000 0 -15242005.162 11702450.555 -16769590.840 10 0 60293 24300.00000 0 -17040911.309 12408483.318 -14358807.083 10 0 60293 25200.00000 0 -18487130.654 13139775.837 -11669032.979 10 0 60293 26100.00000 0 -19559320.277 13837502.856 -8752547.296 10 0 60293 27000.00000 0 -20249636.708 14441434.107 -5666027.230 10 0 60293 27900.00000 0 -20563861.272 14892629.773 -2469444.623 10 0 60293 28800.00000 0 -20520966.591 15136095.409 775101.736 10 0 60293 29700.00000 0 -20152143.628 15123283.776 4004594.665 10 0 60293 30600.00000 0 -19499331.313 14814337.499 7156324.146 10 0 60293 31500.00000 0 -18613311.681 14179977.418 10169105.631 10 0 60293 32400.00000 0 -17551451.591 13202956.543 12984467.229 10 0 60293 33300.00000 0 -16375186.798 11879017.839 15547782.625 10 0 60293 34200.00000 0 -15147354.694 10217315.005 17809327.814 10 0 60293 35100.00000 0 -13929488.089 8240277.912 19725241.509 10 0 60293 36000.00000 0 -12779183.655 5982927.545 21258371.079 10 0 60293 36900.00000 0 -11747655.280 3491668.243 22378988.257 10 0 60293 37800.00000 0 -10877574.499 822606.586 23065361.374 10 0 60293 38700.00000 0 -10201287.987 -1960534.144 23304173.706 10 0 60293 39600.00000 0 -9739486.278 -4788818.345 23090780.237 10 0 60293 40500.00000 0 -9500378.967 -7590722.628 22429298.176 10 0 60293 41400.00000 0 -9479410.568 -10294872.714 21332529.460 10 0 60293 42300.00000 0 -9659528.742 -12832780.121 19821716.512 10 0 60293 43200.00000 0 -10011993.562 -15141465.978 17926135.481 10 0 60293 44100.00000 0 -10497693.926 -17165863.764 15682534.234 10 0 60293 45000.00000 0 -11068915.962 -18860901.584 13134425.219 10 0 60293 45900.00000 0 -11671489.204 -20193177.779 10331246.236 10 0 60293 46800.00000 0 -12247220.241 -21142160.265 7327404.731 10 0 60293 47700.00000 0 -12736511.209 -21700859.753 4181223.779 10 0 60293 48600.00000 0 -13081052.378 -21875948.889 953810.001 10 0 60293 49500.00000 0 -13226474.700 -21687322.579 -2292134.543 10 0 60293 50400.00000 0 -13124849.536 -21167118.271 -5493533.106 10 0 60293 51300.00000 0 -12736929.085 -20358237.780 -8588163.452 10 0 60293 52200.00000 0 -12034031.816 -19312433.304 -11515871.103 10 0 60293 53100.00000 0 -10999492.138 -18088038.734 -14219742.425 10 0 60293 54000.00000 0 -9629611.938 -16747442.326 -16647214.291 10 0 60293 54900.00000 0 -7934072.633 -15354407.584 -18751098.380 10 0 60293 55800.00000 0 -5935789.178 -13971355.555 -20490500.018 10 0 60293 56700.00000 0 -3670210.948 -12656723.097 -21831613.688 10 0 60293 57600.00000 0 -1184097.627 -11462508.251 -22748379.900 10 0 60293 58500.00000 0 1466179.725 -10432105.833 -23222990.885 10 0 60293 59400.00000 0 4216742.451 -9598523.843 -23246235.593 10 0 60293 60300.00000 0 6998626.084 -8983055.206 -22817677.518 10 0 60293 61200.00000 0 9740419.979 -8594460.104 -21945662.085 10 0 60293 62100.00000 0 12371015.590 -8428692.648 -20647153.533 10 0 60293 63000.00000 0 14822349.585 -8469182.741 -18947404.410 10 0 60293 63900.00000 0 17032028.120 -8687660.673 -16879463.975 10 0 60293 64800.00000 0 18945723.455 -9045489.103 -14483534.919 10 0 60293 65700.00000 0 20519243.524 -9495445.732 -11806190.719 10 0 60293 66600.00000 0 21720188.612 -9983880.919 -8899468.790 10 0 60293 67500.00000 0 22529126.548 -10453158.626 -5819857.074 10 0 60293 68400.00000 0 22940237.998 -10844277.040 -2627193.905 10 0 60293 69300.00000 0 22961405.649 -11099557.595 616497.148 10 0 60293 70200.00000 0 22613744.489 -11165288.206 3848214.452 10 0 60293 71100.00000 0 21930593.892 -10994208.478 7005203.659 10 0 60293 72000.00000 0 20956014.803 -10547731.380 10026176.991 10 0 60293 72900.00000 0 19742856.092 -9797807.064 12852502.541 10 0 60293 73800.00000 0 18350472.049 -8728349.735 15429340.413 10 0 60293 74700.00000 0 16842187.428 -7336166.846 17706703.683 10 0 60293 75600.00000 0 15282616.765 -5631350.949 19640423.967 10 0 60293 76500.00000 0 13734950.381 -3637116.924 21193003.339 10 0 60293 77400.00000 0 12258320.631 -1389090.536 22334336.682 10 0 60293 78300.00000 0 10905358.184 1065923.006 23042291.176 10 0 60293 79200.00000 0 9720039.993 3671640.299 23303132.298 10 0 60293 80100.00000 0 8735918.237 6364401.137 23111788.571 10 0 60293 81000.00000 0 7974803.588 9075583.952 22471950.226 10 0 60293 81900.00000 0 7445957.155 11734236.131 21395999.872 10 0 60293 82800.00000 0 7145824.375 14269811.064 19904776.312 10 0 60293 83700.00000 0 7058321.550 16614899.197 18027175.579 10 0 60293 84600.00000 0 7155662.704 18707840.386 15799596.289 10 0 60293 85500.00000 0 7399691.874 20495109.386 13265239.327 10 0 60294 0.00000 0 7743664.695 21933375.413 10473274.974 10 0 60294 900.00000 0 8134404.327 22991150.758 7477891.464 10 0 60294 1800.00000 0 8514740.230 23649957.774 4337246.797 10 0 60294 2700.00000 0 8826127.165 23904968.009 1112338.992 10 0 60294 3600.00000 0 9011332.895 23765084.684 -2134179.595 10 0 60294 4500.00000 0 9017080.524 23252465.944 -5339221.968 10 0 60294 5400.00000 0 8796532.878 22401508.921 -8440495.835 10 0 60294 6300.00000 0 8311512.962 21257337.532 -11377718.183 10 0 60294 7200.00000 0 7534365.514 19873857.935 -14093790.851 10 0 60294 8100.00000 0 6449379.898 18311463.796 -16535913.786 10 0 60294 9000.00000 0 5053713.042 16634488.205 -18656613.987 10 0 60294 9900.00000 0 3357772.332 14908509.662 -20414669.905 10 0 60294 10800.00000 0 1385041.069 13197625.516 -21775913.337 10 0 60294 11700.00000 0 -828647.380 11561807.314 -22713893.362 10 0 60294 12600.00000 0 -3236357.501 10054448.941 -23210389.656 10 0 60294 13500.00000 0 -5781770.487 8720209.982 -23255765.486 10 0 60294 14400.00000 0 -8401303.258 7593244.225 -22849153.812 10 0 60294 15300.00000 0 -11026540.068 6695886.910 -21998473.040 10 0 60294 16200.00000 0 -13586876.115 6037854.944 -20720272.227 10 0 60294 17100.00000 0 -16012263.618 5615992.802 -19039408.684 10 0 60294 18000.00000 0 -18235946.420 5414573.849 -16988564.150 10 0 60294 18900.00000 0 -20197069.531 5406143.498 -14607608.736 10 0 60294 19800.00000 0 -21843055.161 5552867.846 -11942824.833 10 0 60294 20700.00000 0 -23131646.303 5808330.065 -9046005.993 10 0 60294 21600.00000 0 -24032532.861 6119697.973 -5973448.284 10 0 60294 22500.00000 0 -24528492.708 6430170.471 -2784853.873 10 0 60294 23400.00000 0 -24616000.390 6681598.738 457831.555 10 0 60294 24300.00000 0 -24305278.612 6817170.682 3691624.566 10 0 60294 25200.00000 0 -23619791.062 6784044.510 6853729.108 10 0 60294 26100.00000 0 -22595198.628 6535819.493 9882756.762 10 0 60294 27000.00000 0 -21277823.601 6034739.022 12719918.136 10 0 60294 27900.00000 0 -19722686.964 5253532.379 15310162.180 10 0 60294 28800.00000 0 -17991201.664 4176817.092 17603241.325 10 0 60294 29700.00000 0 -16148618.841 2802002.211 19554682.136 10 0 60294 30600.00000 0 -14261334.046 1139653.851 21126643.122 10 0 60294 31500.00000 0 -12394165.963 -786693.145 22288643.705 10 0 60294 32400.00000 0 -10607720.940 -2941270.532 23018150.877 10 0 60294 33300.00000 0 -8955952.768 -5277329.394 23301012.861 10 0 60294 34200.00000 0 -7484018.781 -7738859.217 23131731.824 10 0 60294 35100.00000 0 -6226520.894 -10262703.015 22513570.686 10 0 60294 36000.00000 0 -5206204.113 -12780981.751 21458491.992 10 0 60294 36900.00000 0 -4433166.054 -15223728.380 19986929.796 10 0 60294 37800.00000 0 -3904609.785 -17521623.021 18127398.519 10 0 60294 38700.00000 0 -3605149.736 -19608716.262 15915945.704 10 0 60294 39600.00000 0 -3507657.344 -21425027.805 13395458.562 10 0 60294 40500.00000 0 -3574610.558 -22918912.457 10614836.999 10 0 60294 41400.00000 0 -3759890.102 -24049094.858 7628048.537 10 0 60294 42300.00000 0 -4010946.475 -24786287.817 4493083.027 10 0 60294 43200.00000 0 -4271245.902 -25114326.328 1270827.237 10 0 60294 44100.00000 0 -4482891.424 -25030769.523 -1976118.838 10 0 60294 45000.00000 0 -4589307.704 -24546945.066 -5184660.603 10 0 60294 45900.00000 0 -4537875.230 -23687433.965 -8292438.346 10 0 60294 46800.00000 0 -4282401.595 -22489017.407 -11239043.126 10 0 60294 47700.00000 0 -3785324.326 -20999129.930 -13967194.810 10 0 60294 48600.00000 0 -3019551.089 -19273884.081 -16423858.890 10 0 60294 49500.00000 0 -1969858.388 -17375749.712 -18561279.994 10 0 60294 50400.00000 0 -633788.637 -15370985.558 -20337911.773 10 0 60294 51300.00000 0 977993.390 -13326930.947 -21719225.104 10 0 60294 52200.00000 0 2841900.899 -11309271.145 -22678379.030 10 0 60294 53100.00000 0 4922174.937 -9379390.762 -23196741.637 10 0 60294 54000.00000 0 7172153.480 -7591925.620 -23264251.048 10 0 60294 54900.00000 0 9536007.697 -5992614.983 -22879609.791 10 0 60294 55800.00000 0 11950873.732 -4616543.312 -22050308.938 10 0 60294 56700.00000 0 14349291.824 -3486844.215 -20792481.645 10 0 60294 57600.00000 0 16661851.632 -2613919.880 -19130588.894 10 0 60294 58500.00000 0 18819933.866 -1995207.619 -17096943.401 10 0 60294 59400.00000 0 20758434.196 -1615502.181 -14731080.788 10 0 60294 60300.00000 0 22418355.915 -1447819.139 -12078990.039 10 0 60294 61200.00000 0 23749163.201 -1454761.921 -9192218.105 10 0 60294 62100.00000 0 24710796.698 -1590333.774 -6126866.091 10 0 60294 63000.00000 0 25275267.200 -1802117.216 -2942496.613 10 0 60294 63900.00000 0 25427760.916 -2033727.963 299026.079 10 0 60294 64800.00000 0 25167210.286 -2227438.777 3534740.340 10 0 60294 65700.00000 0 24506306.853 -2326861.515 6701811.916 10 0 60294 66600.00000 0 23470956.107 -2279573.303 9738755.023 10 0 60294 67500.00000 0 22099197.770 -2039575.255 12586625.761 10 0 60294 68400.00000 0 20439637.239 -1569479.352 15190164.518 10 0 60294 69300.00000 0 18549454.402 -842330.744 17498865.272 10 0 60294 70200.00000 0 16492073.435 157011.833 19467951.309 10 0 60294 71100.00000 0 14334591.094 1430996.153 21059238.951 10 0 60294 72000.00000 0 12145070.804 2969034.746 22241873.125 10 0 60294 72900.00000 0 9989815.043 4747716.421 22992921.224 10 0 60294 73800.00000 0 7930729.136 6731563.254 23297814.391 10 0 60294 74700.00000 0 6022885.502 8874302.457 23150628.197 10 0 60294 75600.00000 0 4312388.913 11120601.326 22554197.592 10 0 60294 76500.00000 0 2834630.686 13408194.192 21520063.958 10 0 60294 77400.00000 0 1613003.640 15670313.958 20068255.088 10 0 60294 78300.00000 0 658130.495 17838328.008 18226901.898 10 0 60294 79200.00000 0 -32362.881 19844469.598 16031698.639 10 0 60294 80100.00000 0 -473520.591 21624551.441 13525216.351 10 0 60294 81000.00000 0 -692190.538 23120548.628 10756082.119 10 0 60294 81900.00000 0 -725655.853 24282943.090 7778039.394 10 0 60294 82800.00000 0 -619822.035 25072731.357 4648907.158 10 0 60294 83700.00000 0 -427036.710 25463011.207 1429457.928 10 0 60294 84600.00000 0 -203634.591 25440080.252 -1817763.626 10 0 60294 85500.00000 0 -7312.023 25003999.856 -5029658.188 10 0 60295 0.00000 0 105557.114 24168600.384 -8143801.059 10 0 60295 900.00000 0 82549.820 22960926.657 -11099660.398 10 0 60295 1800.00000 0 -122345.549 21420147.898 -13839776.017 10 0 60295 2700.00000 0 -546541.529 19595976.313 -16310880.853 10 0 60295 3600.00000 0 -1217030.192 17546661.663 -18464938.769 10 0 60295 4500.00000 0 -2149006.016 15336645.587 -20260079.965 10 0 60295 5400.00000 0 -3344992.101 13033973.993 -21661415.503 10 0 60295 6300.00000 0 -4794507.591 10707575.777 -22641715.261 10 0 60295 7200.00000 0 -6474291.297 8424521.508 -23181936.376 10 0 60295 8100.00000 0 -8349073.194 6247376.302 -23271592.188 10 0 60295 9000.00000 0 -10372862.387 4231756.911 -22908954.832 10 0 60295 9900.00000 0 -12490698.564 2424194.390 -22101087.699 10 0 60295 10800.00000 0 -14640794.445 860390.697 -20863707.268 10 0 60295 11700.00000 0 -16756980.339 -436058.926 -19220876.945 10 0 60295 12600.00000 0 -18771349.154 -1454425.512 -17204538.745 10 0 60295 13500.00000 0 -20616991.614 -2197057.270 -14853891.725 10 0 60295 14400.00000 0 -22230707.563 -2679034.310 -12214629.058 10 0 60295 15300.00000 0 -23555579.917 -2927282.952 -9338048.473 10 0 60295 16200.00000 0 -24543303.530 -2979188.171 -6280053.325 10 0 60295 17100.00000 0 -25156171.334 -2880763.876 -3100063.821 10 0 60295 18000.00000 0 -25368634.429 -2684459.346 140140.125 10 0 60295 18900.00000 0 -25168370.739 -2446695.540 3377621.560 10 0 60295 19800.00000 0 -24556817.496 -2225236.276 6549510.899 10 0 60295 20700.00000 0 -23549145.395 -2076506.247 9594227.824 10 0 60295 21600.00000 0 -22173675.807 -2052969.861 12452676.644 10 0 60295 22500.00000 0 -20470765.731 -2200682.185 15069391.771 10 0 60295 23400.00000 0 -18491207.460 -2557115.813 17393611.077 10 0 60295 24300.00000 0 -16294210.064 -3149355.662 19380256.633 10 0 60295 25200.00000 0 -13945047.020 -3992738.131 20990804.269 10 0 60295 26100.00000 0 -11512467.978 -5089992.279 22194025.694 10 0 60295 27000.00000 0 -9065982.132 -6430919.652 22966589.519 10 0 60295 27900.00000 0 -6673125.667 -7992626.970 23293510.173 10 0 60295 28800.00000 0 -4396826.208 -9740302.776 23168436.540 10 0 60295 29700.00000 0 -2292972.921 -11628506.685 22593775.091 10 0 60295 30600.00000 0 -408292.307 -13602918.511 21580645.147 10 0 60295 31500.00000 0 1221382.961 -15602475.429 20148666.991 10 0 60295 32400.00000 0 2572381.058 -17561809.036 18325586.453 10 0 60295 33300.00000 0 3633942.021 -19413881.594 16146742.604 10 0 60295 34200.00000 0 4408422.210 -21092711.992 13654388.154 10 0 60295 35100.00000 0 4910944.422 -22536077.962 10896874.965 10 0 60295 36000.00000 0 5168509.025 -23688081.651 7927719.817 10 0 60295 36900.00000 0 5218604.057 -24501470.907 4804568.094 10 0 60295 37800.00000 0 5107373.417 -24939618.619 1588075.271 10 0 60295 38700.00000 0 4887421.007 -24978076.440 -1659272.108 10 0 60295 39600.00000 0 4615344.191 -24605636.979 -4874372.756 10 0 60295 40500.00000 0 4349101.564 -23824859.156 -7994740.208 10 0 60295 41400.00000 0 4145327.115 -22652033.949 -10959721.185 10 0 60295 42300.00000 0 4056705.251 -21116591.452 -13711678.461 10 0 60295 43200.00000 0 4129518.547 -19259973.688 -16197114.712 10 0 60295 44100.00000 0 4401472.781 -17134020.142 -18367715.146 10 0 60295 45000.00000 0 4899891.987 -14798933.476 -20181288.351 10 0 60295 45900.00000 0 5640360.547 -12320910.413 -21602587.109 10 0 60295 46800.00000 0 6625870.407 -9769536.663 -22603993.314 10 0 60295 47700.00000 0 7846510.136 -7215054.484 -23166053.938 10 0 60295 48600.00000 0 9279709.751 -4725616.583 -23277857.940 10 0 60295 49500.00000 0 10891031.821 -2364640.348 -22937247.071 10 0 60295 50400.00000 0 12635476.449 -188372.122 -22150856.688 10 0 60295 51300.00000 0 14459246.150 1756237.746 -20933985.898 10 0 60295 52200.00000 0 16301897.316 3433261.420 -19310299.501 10 0 60295 53100.00000 0 18098788.643 4819050.659 -17311367.438 10 0 60295 54000.00000 0 19783724.312 5902973.148 -14976050.477 10 0 60295 54900.00000 0 21291681.377 6687598.560 -12349743.896 10 0 60295 55800.00000 0 22561507.080 7188327.897 -9483493.744 10 0 60295 56700.00000 0 23538472.860 7432483.048 -6433002.838 10 0 60295 57600.00000 0 24176577.757 7457896.238 -3257545.911 10 0 60295 58500.00000 0 24440504.283 7311060.073 -18815.302 10 0 60295 59400.00000 0 24307144.448 7044917.451 3220280.039 10 0 60295 60300.00000 0 23766631.697 6716385.704 6396838.454 10 0 60295 61200.00000 0 22822835.385 6383720.507 9449188.189 10 0 60295 62100.00000 0 21493296.969 6103831.661 12318084.624 10 0 60295 63000.00000 0 19808610.668 5929664.716 14947858.748 10 0 60295 63900.00000 0 17811274.510 5907759.369 17287494.575 10 0 60295 64800.00000 0 15554059.822 6076087.933 19291614.873 10 0 60295 65700.00000 0 13097967.093 6462265.158 20921356.565 10 0 60295 66600.00000 0 10509853.218 7082204.960 22145119.411 10 0 60295 67500.00000 0 7859828.475 7939280.799 22939174.172 10 0 60295 68400.00000 0 5218530.856 9024025.391 23288119.134 10 0 60295 69300.00000 0 2654390.262 10314382.899 23185176.686 10 0 60295 70200.00000 0 230995.247 11776503.822 22632324.569 10 0 60295 71100.00000 0 -1995329.359 13366050.249 21640259.348 10 0 60295 72000.00000 0 -3977634.338 15029957.866 20228192.627 10 0 60295 72900.00000 0 -5680060.709 16708582.063 18423483.534 10 0 60295 73800.00000 0 -7079086.705 18338139.322 16261113.939 10 0 60295 74700.00000 0 -8164255.987 19853342.473 13783015.860 10 0 60295 75600.00000 0 -8938357.460 21190120.004 11037263.305 10 0 60295 76500.00000 0 -9417049.931 22288305.683 8077143.575 10 0 60295 77400.00000 0 -9627947.978 23094185.585 4960125.527 10 0 60295 78300.00000 0 -9609208.138 23562795.193 1746744.604 10 0 60295 79200.00000 0 -9407675.550 23659869.476 -1500573.772 10 0 60295 80100.00000 0 -9076669.937 23363363.129 -4718729.287 10 0 60295 81000.00000 0 -8673505.100 22664476.202 -7845176.263 10 0 60295 81900.00000 0 -8256847.513 21568141.067 -10819143.196 10 0 60295 82800.00000 0 -7884026.477 20092949.448 -13582817.966 10 0 60295 83700.00000 0 -7608410.331 18270521.821 -16082475.153 10 0 60295 84600.00000 0 -7476960.384 16144345.006 -18269523.177 10 0 60295 85500.00000 0 -7528066.623 13768126.187 -20101450.609 10 0 60296 0.00000 0 -7789757.162 11203732.070 -21542653.156 10 0 60296 900.00000 0 -8278357.778 8518797.504 -22565126.040 10 0 60296 1800.00000 0 -8997658.157 5784106.554 -23149006.718 10 0 60296 2700.00000 0 -9938620.981 3070850.233 -23282960.272 10 0 60296 3600.00000 0 -11079646.321 447878.029 -22964398.264 10 0 60296 4500.00000 0 -12387380.882 -2020944.205 -22199527.838 10 0 60296 5400.00000 0 -13818038.600 -4279160.523 -21003230.141 10 0 60296 6300.00000 0 -15319177.651 -6279835.112 -19398770.347 10 0 60296 7200.00000 0 -16831859.688 -7987259.496 -17417344.868 10 0 60296 8100.00000 0 -18293100.960 -9378186.584 -15097474.324 10 0 60296 9000.00000 0 -19638512.607 -10442541.233 -12484253.890 10 0 60296 9900.00000 0 -20805019.229 -11183578.853 -9628475.451 10 0 60296 10800.00000 0 -21733541.411 -11617486.770 -6585638.592 10 0 60296 11700.00000 0 -22371529.214 -11772446.473 -3414869.735 10 0 60296 12600.00000 0 -22675239.787 -11687197.527 -177770.706 10 0 60296 13500.00000 0 -22611662.981 -11409164.979 3062780.534 10 0 60296 14400.00000 0 -22160013.657 -10992230.383 6243853.276 10 0 60296 15300.00000 0 -21312727.658 -10494241.594 9303687.322 10 0 60296 16200.00000 0 -20075919.340 -9974367.264 12182892.050 10 0 60296 17100.00000 0 -18469281.259 -9490408.412 14825597.820 10 0 60296 18000.00000 0 -16525429.987 -9096180.926 17180537.360 10 0 60296 18900.00000 0 -14288725.203 -8839079.624 19202036.418 10 0 60296 19800.00000 0 -11813611.060 -8757926.604 20850894.929 10 0 60296 20700.00000 0 -9162548.589 -8881194.455 22095142.199 10 0 60296 21600.00000 0 -6403624.678 -9225679.050 22910652.187 10 0 60296 22500.00000 0 -3607936.314 -9795677.710 23281607.625 10 0 60296 23400.00000 0 -846857.910 -10582707.473 23200804.541 10 0 60296 24300.00000 0 1810695.822 -11565775.625 22669791.673 10 0 60296 25200.00000 0 4300898.919 -12712191.772 21698842.161 10 0 60296 26100.00000 0 6567427.055 -13978888.109 20306757.908 10 0 60296 27000.00000 0 8563555.073 -15314193.428 18520509.973 10 0 60296 27900.00000 0 10253852.936 -16659987.345 16374721.329 10 0 60296 28800.00000 0 11615410.309 -17954145.158 13911001.267 10 0 60296 29700.00000 0 12638539.470 -19133171.341 11177143.588 10 0 60296 30600.00000 0 13326927.896 -20134911.412 8226203.446 10 0 60296 31500.00000 0 13697234.712 -20901228.228 5115470.256 10 0 60296 32400.00000 0 13778148.594 -21380529.875 1905356.331 10 0 60296 33300.00000 0 13608947.332 -21530042.216 -1341777.217 10 0 60296 34200.00000 0 13237620.364 -21317729.590 -4562834.227 10 0 60296 35100.00000 0 12718634.134 -20723781.866 -7695212.900 10 0 60296 36000.00000 0 12110435.327 -19741604.172 -10678026.442 10 0 60296 36900.00000 0 11472798.145 -18378266.598 -13453290.556 10 0 60296 37800.00000 0 10864128.457 -16654393.996 -15967054.194 10 0 60296 38700.00000 0 10338839.324 -14603499.531 -18170451.169 10 0 60296 39600.00000 0 9944909.356 -12270789.195 -20020651.892 10 0 60296 40500.00000 0 9721727.446 -9711486.615 -21481696.709 10 0 60296 41400.00000 0 9698315.164 -6988747.585 -22525194.752 10 0 60296 42300.00000 0 9892002.071 -4171250.851 -23130874.942 10 0 60296 43200.00000 0 10307609.960 -1330565.065 -23286978.760 10 0 60296 44100.00000 0 10937180.628 1461599.024 -22990487.447 10 0 60296 45000.00000 0 11760258.794 4136137.307 -22247179.444 10 0 60296 45900.00000 0 12744718.508 6629188.320 -21071517.092 10 0 60296 46800.00000 0 13848098.547 8884547.579 -19486364.786 10 0 60296 47700.00000 0 15019390.799 10855760.525 -17522543.937 10 0 60296 48600.00000 0 16201206.649 12507807.827 -15218233.241 10 0 60296 49500.00000 0 17332230.276 13818313.762 -12618225.678 10 0 60296 50400.00000 0 18349855.617 14778228.268 -9773056.564 10 0 60296 51300.00000 0 19192895.841 15391955.391 -6738019.562 10 0 60296 52200.00000 0 19804250.987 15676923.988 -3572089.852 10 0 60296 53100.00000 0 20133421.035 15662620.057 -336775.653 10 0 60296 54000.00000 0 20138758.151 15389122.694 2905079.223 10 0 60296 54900.00000 0 19789362.794 14905206.560 6090518.121 10 0 60296 55800.00000 0 19066543.427 14266091.980 9157695.370 10 0 60296 56700.00000 0 17964778.014 13530938.471 12047077.100 10 0 60296 57600.00000 0 16492136.445 12760188.140 14702595.526 10 0 60296 58500.00000 0 14670145.793 12012871.452 17072734.284 10 0 60296 59400.00000 0 12533103.571 11343989.164 19111524.005 10 0 60296 60300.00000 0 10126867.201 10802080.699 20779429.255 10 0 60296 61200.00000 0 7507169.631 10427081.142 22044110.218 10 0 60296 62100.00000 0 4737530.580 10248556.707 22881045.080 10 0 60296 63000.00000 0 1886849.432 10284392.558 23274001.728 10 0 60296 63900.00000 0 -973221.114 10539987.869 23215350.186 10 0 60296 64800.00000 0 -3771012.674 11007991.863 22706210.137 10 0 60296 65700.00000 0 -6437577.604 11668592.040 21756430.805 10 0 60296 66600.00000 0 -8909311.726 12490342.829 20384403.430 10 0 60296 67500.00000 0 -11130355.535 13431500.423 18616709.576 10 0 60296 68400.00000 0 -13054675.074 14441808.346 16487611.454 10 0 60296 69300.00000 0 -14647736.675 15464659.413 14038393.391 10 0 60296 70200.00000 0 -15887706.533 16439543.737 11316566.455 10 0 60296 71100.00000 0 -16766125.593 17304680.185 8374950.922 10 0 60296 72000.00000 0 -17288032.072 17999720.638 5270653.912 10 0 60296 72900.00000 0 -17471526.930 18468412.927 2063961.704 10 0 60296 73800.00000 0 -17346801.080 18661109.769 -1182831.811 10 0 60296 74700.00000 0 -16954665.738 18537017.136 -4406637.502 10 0 60296 75600.00000 0 -16344648.426 18066086.318 -7544800.257 10 0 60296 76500.00000 0 -15572735.519 17230468.805 -10536320.676 10 0 60296 77400.00000 0 -14698857.254 16025471.506 -13323044.815 10 0 60296 78300.00000 0 -13784221.986 14459970.947 -15850798.308 10 0 60296 79200.00000 0 -12888612.810 12556267.882 -18070442.407 10 0 60296 80100.00000 0 -12067761.109 10349387.385 -19938831.112 10 0 60296 81000.00000 0 -11370908.203 7885852.805 -21419650.747 10 0 60296 81900.00000 0 -10838658.082 5221984.014 -22484125.752 10 0 60296 82800.00000 0 -10501211.836 2421790.293 -23111577.197 10 0 60296 83700.00000 0 -10377058.066 -445454.978 -23289823.482 10 0 60296 84600.00000 0 -10472174.328 -3307857.447 -23015415.727 10 0 60296 85500.00000 0 -10779773.073 -6093653.358 -22293703.520 99